QPF
0.04 0.04 0.05 0.04 0.03 0.03 0.04 0.06 0.09 0.10 0.09 0.07 0.04 0.05 0.07 0.07 0.05 0.03 0.03 0.02 0.01 0.02 0.02 0.02 0.02 0.02 0.03 0.02 0.02 0.03 0.03 0.05 0.05 0.04 0.02 0.02 0.02 0.02 0.02 0.02 0.02 0.02 0.02
0.02 0.03 0.04 0.04 0.02 0.03 0.03 0.03 0.06 0.08 0.07 0.07 0.06 0.05 0.07 0.07 0.05 0.04 0.04 0.03 0.02 0.02 0.02 0.03 0.03 0.03 0.02 0.02 0.02 0.02 0.02 0.02 0.03 0.02 0.02 0.02 0.02 0.03 0.03 0.02 0.02 0.03 0.03
0.01 0.02 0.03 0.03 0.02 0.03 0.02 0.03 0.04 0.05 0.05 0.04 0.05 0.05 0.06 0.05 0.05 0.04 0.04 0.04 0.03 0.03 0.03 0.03 0.03 0.03 0.02 0.02 0.02 0.02 0.01 0.01 0.02 0.02 0.01 0.01 0.02 0.03 0.03 0.02 0.02 0.02 0.02
0.01 0.01 0.02 0.02 0.02 0.03 0.03 0.03 0.04 0.04 0.04 0.03 0.03 0.04 0.05 0.05 0.05 0.05 0.06 0.06 0.06 0.06 0.06 0.06 0.05 0.04 0.03 0.03 0.03 0.02 0.02 0.02 0.02 0.02 0.02 0.02 0.01 0.02 0.03 0.03 0.03 0.02 0.03
0.01 0.01 0.01 0.01 0.02 0.02 0.02 0.03 0.03 0.03 0.03 0.03 0.03 0.03 0.03 0.05 0.05 0.07 0.08 0.07 0.07 0.07 0.06 0.05 0.04 0.04 0.03 0.03 0.03 0.02 0.02 0.02 0.02 0.02 0.03 0.03 0.02 0.02 0.02 0.02 0.03 0.03 0.03
0.02 0.01 0.01 0.01 0.01 0.02 0.03 0.04 0.06 0.05 0.04 0.03 0.03 0.03 0.03 0.05 0.06 0.07 0.07 0.07 0.05 0.04 0.03 0.02 0.02 0.02 0.02 0.03 0.02 0.02 0.02 0.02 0.02 0.02 0.02 0.03 0.03 0.03 0.03 0.03 0.03 0.05 0.05
0.02 0.01 0.01 0.01 0.01 0.02 0.02 0.02 0.03 0.05 0.05 0.03 0.04 0.04 0.05 0.06 0.06 0.05 0.04 0.04 0.03 0.02 0.02 0.02 0.01 0.01 0.01 0.01 0.01 0.02 0.02 0.03 0.03 0.03 0.02 0.02 0.03 0.03 0.03 0.04 0.04 0.05 0.04
0.02 0.02 0.01 0.01 0.01 0.02 0.02 0.02 0.02 0.03 0.03 0.03 0.04 0.04 0.04 0.03 0.03 0.03 0.03 0.03 0.02 0.01 0.01 0.01 0.01 0.01 0.01 0.01 0.01 0.02 0.02 0.02 0.02 0.02 0.02 0.02 0.02 0.02 0.03 0.04 0.05 0.05 0.05
0.04 0.03 0.03 0.03 0.02 0.03 0.03 0.02 0.02 0.03 0.03 0.04 0.03 0.04 0.04 0.02 0.02 0.02 0.01 0.01 0.01 0.00 0.00 0.00 0.00 0.01 0.01 0.01 0.02 0.02 0.01 0.02 0.01 0.02 0.02 0.02 0.02 0.03 0.04 0.04 0.04 0.04 0.03
0.05 0.04 0.04 0.04 0.04 0.04 0.04 0.03 0.03 0.04 0.05 0.05 0.03 0.03 0.03 0.02 0.01 0.00 0.00 0.00 0.00 0.00 0.00 0.00 0.00 0.01 0.01 0.01 0.01 0.01 0.01 0.01 0.01 0.02 0.03 0.03 0.03 0.03 0.04 0.04 0.04 0.04 0.04
0.04 0.03 0.04 0.05 0.05 0.05 0.05 0.04 0.03 0.03 0.03 0.03 0.02 0.02 0.02 0.01 0.01 0.00 0.00 0.00 0.00 0.00 0.00 0.00 0.00 0.00 0.00 0.00 0.01 0.01 0.01 0.01 0.01 0.02 0.02 0.02 0.02 0.03 0.03 0.03 0.04 0.06 0.07
0.05 0.03 0.03 0.03 0.03 0.03 0.03 0.02 0.01 0.01 0.01 0.02 0.02 0.01 0.01 0.01 0.00 0.00 0.00 0.00 0.00 0.00 0.00 0.00 0.00 0.00 0.00 0.01 0.01 0.01 0.01 0.01 0.01 0.02 0.02 0.02 0.02 0.02 0.03 0.03 0.04 0.04 0.05
0.03 0.01 0.01 0.01 0.01 0.01 0.01 0.02 0.01 0.01 0.02 0.02 0.02 0.01 0.01 0.00 0.01 0.00 0.00 0.00 0.00 0.00 0.00 0.01 0.01 0.01 0.01 0.01 0.01 0.01 0.01 0.01 0.02 0.02 0.02 0.02 0.02 0.02 0.02 0.02 0.03 0.02 0.02
0.02 0.01 0.01 0.01 0.01 0.01 0.01 0.01 0.01 0.01 0.02 0.02 0.03 0.02 0.01 0.02 0.02 0.01 0.01 0.01 0.01 0.01 0.01 0.01 0.00 0.00 0.00 0.00 0.01 0.01 0.01 0.02 0.02 0.02 0.02 0.01 0.01 0.02 0.02 0.02 0.02 0.02 0.02
0.04 0.02 0.02 0.01 0.01 0.01 0.01 0.00 0.00 0.01 0.01 0.01 0.01 0.01 0.01 0.01 0.02 0.02 0.02 0.02 0.01 0.00 0.00 0.00 0.00 0.00 0.00 0.00 0.00 0.00 0.01 0.01 0.01 0.01 0.02 0.02 0.01 0.02 0.03 0.03 0.02 0.02 0.02
0.05 0.03 0.02 0.02 0.02 0.02 0.01 0.00 0.00 0.00 0.00 0.00 0.00 0.01 0.01 0.02 0.03 0.03 0.03 0.02 0.02 0.01 0.00 0.00 0.01 0.01 0.00 0.00 0.00 0.01 0.01 0.01 0.01 0.01 0.02 0.02 0.02 0.01 0.03 0.04 0.04 0.03 0.03
0.02 0.03 0.03 0.03 0.02 0.02 0.01 0.01 0.00 0.00 0.00 0.00 0.01 0.01 0.02 0.03 0.03 0.02 0.02 0.02 0.02 0.01 0.00 0.00 0.00 0.01 0.00 0.00 0.01 0.01 0.01 0.01 0.01 0.01 0.02 0.02 0.01 0.01 0.02 0.03 0.04 0.05 0.04
0.02 0.02 0.04 0.04 0.03 0.03 0.02 0.01 0.01 0.00 0.01 0.01 0.01 0.02 0.02 0.02 0.01 0.01 0.01 0.01 0.01 0.01 0.01 0.01 0.01 0.01 0.01 0.01 0.01 0.01 0.01 0.01 0.01 0.01 0.01 0.01 0.01 0.02 0.02 0.03 0.03 0.04 0.04
0.02 0.02 0.02 0.03 0.04 0.03 0.02 0.01 0.01 0.01 0.01 0.02 0.02 0.02 0.03 0.03 0.02 0.02 0.02 0.02 0.02 0.02 0.02 0.02 0.01 0.01 0.01 0.01 0.01 0.01 0.01 0.01 0.01 0.01 0.01 0.00 0.00 0.01 0.01 0.02 0.02 0.02 0.02
0.01 0.01 0.01 0.02 0.02 0.02 0.01 0.01 0.01 0.01 0.01 0.01 0.02 0.02 0.02 0.03 0.02 0.02 0.01 0.01 0.02 0.02 0.02 0.02 0.01 0.01 0.01 0.01 0.01 0.01 0.01 0.01 0.01 0.01 0.01 0.01 0.01 0.01 0.01 0.01 0.01 0.01 0.01
0.01 0.01 0.01 0.01 0.01 0.01 0.01 0.01 0.01 0.01 0.00 0.00 0.01 0.01 0.01 0.00 0.00 0.00 0.00 0.01 0.01 0.01 0.01 0.01 0.01 0.01 0.01 0.02 0.02 0.01 0.02 0.01 0.01 0.01 0.01 0.01 0.01 0.01 0.01 0.01 0.01 0.02 0.02
0.01 0.01 0.02 0.02 0.02 0.01 0.02 0.02 0.02 0.01 0.00 0.00 0.00 0.00 0.00 0.00 0.00 0.00 0.01 0.01 0.01 0.01 0.01 0.01 0.00 0.01 0.01 0.01 0.01 0.01 0.01 0.01 0.01 0.01 0.01 0.00 0.01 0.01 0.01 0.02 0.02 0.03 0.04
0.01 0.01 0.02 0.03 0.03 0.03 0.03 0.03 0.02 0.01 0.00 0.00 0.00 0.00 0.00 0.00 0.00 0.00 0.00 0.00 0.01 0.01 0.01 0.01 0.01 0.01 0.01 0.01 0.01 0.01 0.01 0.01 0.01 0.01 0.01 0.01 0.01 0.01 0.01 0.01 0.02 0.03 0.04
0.02 0.02 0.03 0.03 0.03 0.03 0.02 0.02 0.01 0.01 0.01 0.01 0.00 0.00 0.00 0.00 0.00 0.00 0.00 0.00 0.01 0.01 0.01 0.01 0.01 0.01 0.01 0.01 0.01 0.01 0.00 0.00 0.00 0.00 0.01 0.01 0.01 0.01 0.01 0.01 0.01 0.01 0.02
0.03 0.03 0.03 0.04 0.04 0.03 0.02 0.01 0.01 0.01 0.01 0.00 0.00 0.00 0.00 0.00 0.00 0.00 0.00 0.00 0.00 0.01 0.01 0.01 0.01 0.01 0.01 0.01 0.01 0.01 0.01 0.01 0.00 0.01 0.01 0.01 0.01 0.01 0.01 0.01 0.01 0.01 0.01
0.04 0.04 0.03 0.03 0.03 0.03 0.02 0.01 0.00 0.00 0.00 0.00 0.00 0.00 0.00 0.00 0.00 0.00 0.00 0.00 0.00 0.01 0.01 0.01 0.01 0.01 0.01 0.01 0.01 0.00 0.00 0.00 0.00 0.00 0.01 0.01 0.01 0.01 0.01 0.01 0.01 0.01 0.01
MSLP
1013.23 1013.02 1012.88 1012.79 1012.73 1012.65 1012.54 1012.38 1012.19 1011.97 1011.74 1011.49 1011.25 1011.00 1010.74 1010.45 1010.13 1009.76 1009.35 1008.91 1008.45 1007.99 1007.55 1007.13 1006.76 1006.43 1006.15 1005.91 1005.70 1005.53 1005.39 1005.28 1005.19 1005.15 1005.13 1005.15 1005.21 1005.31 1005.47 1005.68 1005.96 1006.33 1006.80
1013.72 1013.49 1013.32 1013.19 1013.08 1012.95 1012.80 1012.60 1012.37 1012.11 1011.84 1011.55 1011.26 1010.96 1010.65 1010.31 1009.94 1009.52 1009.07 1008.58 1008.07 1007.56 1007.07 1006.62 1006.21 1005.85 1005.55 1005.31 1005.13 1004.99 1004.91 1004.86 1004.86 1004.89 1004.95 1005.04 1005.16 1005.32 1005.52 1005.77 1006.08 1006.48 1006.96
1014.25 1014.01 1013.82 1013.65 1013.49 1013.30 1013.09 1012.83 1012.55 1012.23 1011.90 1011.56 1011.22 1010.87 1010.51 1010.13 1009.71 1009.26 1008.78 1008.26 1007.73 1007.20 1006.68 1006.21 1005.78 1005.41 1005.10 1004.86 1004.70 1004.59 1004.55 1004.56 1004.62 1004.72 1004.85 1005.01 1005.19 1005.40 1005.65 1005.94 1006.29 1006.71 1007.21
1014.80 1014.55 1014.33 1014.12 1013.90 1013.65 1013.36 1013.04 1012.69 1012.31 1011.92 1011.52 1011.13 1010.74 1010.34 1009.93 1009.49 1009.02 1008.53 1008.01 1007.47 1006.94 1006.42 1005.94 1005.50 1005.13 1004.82 1004.59 1004.44 1004.35 1004.34 1004.39 1004.50 1004.65 1004.83 1005.04 1005.27 1005.53 1005.82 1006.15 1006.53 1006.97 1007.48
1015.33 1015.06 1014.80 1014.53 1014.25 1013.94 1013.58 1013.19 1012.77 1012.33 1011.89 1011.45 1011.02 1010.60 1010.19 1009.76 1009.32 1008.85 1008.37 1007.86 1007.34 1006.82 1006.32 1005.84 1005.41 1005.04 1004.73 1004.51 1004.36 1004.29 1004.29 1004.37 1004.50 1004.67 1004.89 1005.13 1005.40 1005.70 1006.02 1006.37 1006.77 1007.23 1007.73
1015.77 1015.47 1015.17 1014.86 1014.51 1014.13 1013.71 1013.26 1012.79 1012.31 1011.84 1011.38 1010.94 1010.51 1010.09 1009.67 1009.24 1008.80 1008.33 1007.85 1007.36 1006.86 1006.38 1005.92 1005.51 1005.14 1004.84 1004.62 1004.47 1004.41 1004.41 1004.49 1004.62 1004.81 1005.04 1005.30 1005.58 1005.89 1006.22 1006.59 1006.99 1007.44 1007.93
1016.10 1015.77 1015.43 1015.06 1014.66 1014.22 1013.76 1013.28 1012.78 1012.29 1011.81 1011.35 1010.92 1010.51 1010.10 1009.70 1009.30 1008.88 1008.45 1008.00 1007.54 1007.07 1006.62 1006.18 1005.79 1005.43 1005.14 1004.92 1004.77 1004.70 1004.70 1004.77 1004.89 1005.07 1005.29 1005.54 1005.82 1006.12 1006.45 1006.81 1007.20 1007.62 1008.08
1016.31 1015.95 1015.56 1015.16 1014.72 1014.26 1013.77 1013.28 1012.79 1012.31 1011.86 1011.43 1011.03 1010.64 1010.27 1009.90 1009.52 1009.13 1008.73 1008.30 1007.87 1007.44 1007.01 1006.60 1006.22 1005.89 1005.61 1005.39 1005.24 1005.16 1005.15 1005.20 1005.30 1005.46 1005.66 1005.88 1006.14 1006.42 1006.72 1007.05 1007.40 1007.78 1008.19
1016.42 1016.04 1015.63 1015.21 1014.75 1014.29 1013.82 1013.34 1012.89 1012.45 1012.04 1011.65 1011.29 1010.94 1010.60 1010.25 1009.90 1009.53 1009.14 1008.74 1008.33 1007.92 1007.52 1007.14 1006.78 1006.47 1006.20 1005.99 1005.84 1005.76 1005.73 1005.76 1005.84 1005.96 1006.13 1006.32 1006.54 1006.77 1007.03 1007.31 1007.61 1007.93 1008.28
1016.49 1016.10 1015.69 1015.26 1014.82 1014.38 1013.94 1013.51 1013.11 1012.73 1012.37 1012.03 1011.71 1011.39 1011.08 1010.75 1010.40 1010.04 1009.66 1009.27 1008.87 1008.48 1008.10 1007.74 1007.41 1007.12 1006.87 1006.67 1006.53 1006.43 1006.39 1006.40 1006.45 1006.55 1006.67 1006.81 1006.98 1007.17 1007.37 1007.59 1007.82 1008.08 1008.35
1016.57 1016.18 1015.78 1015.37 1014.96 1014.56 1014.17 1013.80 1013.46 1013.14 1012.83 1012.54 1012.25 1011.96 1011.65 1011.32 1010.97 1010.60 1010.22 1009.82 1009.43 1009.05 1008.69 1008.35 1008.04 1007.78 1007.55 1007.37 1007.23 1007.13 1007.08 1007.07 1007.09 1007.14 1007.22 1007.32 1007.43 1007.56 1007.70 1007.85 1008.02 1008.20 1008.40
1016.68 1016.31 1015.93 1015.55 1015.18 1014.83 1014.50 1014.19 1013.90 1013.63 1013.37 1013.11 1012.84 1012.55 1012.23 1011.89 1011.52 1011.14 1010.74 1010.34 1009.95 1009.58 1009.23 1008.91 1008.63 1008.39 1008.18 1008.01 1007.87 1007.77 1007.71 1007.67 1007.66 1007.68 1007.71 1007.76 1007.82 1007.89 1007.97 1008.05 1008.16 1008.27 1008.40
1016.82 1016.47 1016.11 1015.76 1015.44 1015.13 1014.85 1014.59 1014.35 1014.12 1013.89 1013.64 1013.37 1013.08 1012.74 1012.38 1011.99 1011.58 1011.17 1010.76 1010.37 1010.01 1009.68 1009.38 1009.13 1008.90 1008.71 1008.55 1008.41 1008.30 1008.22 1008.15 1008.11 1008.08 1008.07 1008.08 1008.09 1008.11 1008.13 1008.16 1008.20 1008.26 1008.32
1016.96 1016.62 1016.28 1015.96 1015.66 1015.39 1015.14 1014.92 1014.71 1014.50 1014.28 1014.04 1013.76 1013.45 1013.09 1012.71 1012.30 1011.88 1011.46 1011.05 1010.67 1010.32 1010.01 1009.74 1009.49 1009.28 1009.10 1008.94 1008.80 1008.67 1008.57 1008.47 1008.39 1008.33 1008.28 1008.24 1008.21 1008.19 1008.17 1008.16 1008.15 1008.15 1008.16
1017.05 1016.71 1016.37 1016.07 1015.78 1015.53 1015.30 1015.09 1014.89 1014.69 1014.47 1014.22 1013.93 1013.60 1013.24 1012.84 1012.43 1012.01 1011.59 1011.20 1010.83 1010.51 1010.22 1009.96 1009.73 1009.53 1009.35 1009.18 1009.02 1008.88 1008.74 1008.61 1008.50 1008.41 1008.32 1008.25 1008.19 1008.13 1008.08 1008.04 1008.00 1007.96 1007.93
1017.04 1016.69 1016.35 1016.04 1015.75 1015.50 1015.27 1015.06 1014.85 1014.64 1014.41 1014.15 1013.86 1013.52 1013.16 1012.77 1012.37 1011.97 1011.58 1011.21 1010.88 1010.58 1010.31 1010.07 1009.85 1009.65 1009.46 1009.27 1009.10 1008.92 1008.76 1008.60 1008.46 1008.33 1008.22 1008.13 1008.04 1007.97 1007.90 1007.84 1007.77 1007.71 1007.65
1016.92 1016.55 1016.20 1015.87 1015.57 1015.30 1015.06 1014.83 1014.61 1014.39 1014.14 1013.88 1013.59 1013.27 1012.92 1012.56 1012.19 1011.82 1011.47 1011.14 1010.84 1010.56 1010.31 1010.09 1009.87 1009.66 1009.46 1009.25 1009.05 1008.85 1008.65 1008.47 1008.30 1008.16 1008.03 1007.92 1007.83 1007.75 1007.67 1007.59 1007.51 1007.43 1007.34
1016.71 1016.32 1015.96 1015.61 1015.29 1015.00 1014.74 1014.49 1014.25 1014.01 1013.75 1013.49 1013.21 1012.90 1012.59 1012.26 1011.93 1011.61 1011.31 1011.02 1010.75 1010.50 1010.26 1010.03 1009.81 1009.59 1009.36 1009.13 1008.90 1008.67 1008.46 1008.26 1008.08 1007.92 1007.79 1007.67 1007.58 1007.49 1007.41 1007.32 1007.23 1007.13 1007.02
1016.43 1016.05 1015.68 1015.32 1014.99 1014.68 1014.39 1014.12 1013.86 1013.60 1013.35 1013.08 1012.81 1012.53 1012.25 1011.96 1011.68 1011.40 1011.13 1010.88 1010.63 1010.39 1010.15 1009.92 1009.68 1009.43 1009.18 1008.92 1008.67 1008.42 1008.19 1007.98 1007.80 1007.64 1007.50 1007.39 1007.30 1007.21 1007.12 1007.03 1006.92 1006.80 1006.66
1016.15 1015.79 1015.43 1015.09 1014.75 1014.43 1014.13 1013.84 1013.56 1013.29 1013.02 1012.75 1012.49 1012.23 1011.97 1011.71 1011.46 1011.21 1010.97 1010.72 1010.48 1010.24 1009.99 1009.73 1009.46 1009.18 1008.90 1008.62 1008.35 1008.09 1007.85 1007.64 1007.46 1007.30 1007.18 1007.07 1006.98 1006.88 1006.79 1006.68 1006.55 1006.40 1006.24
1015.91 1015.59 1015.27 1014.95 1014.63 1014.32 1014.01 1013.71 1013.41 1013.11 1012.83 1012.55 1012.28 1012.02 1011.77 1011.52 1011.28 1011.04 1010.80 1010.55 1010.29 1010.03 1009.75 1009.45 1009.15 1008.84 1008.52 1008.22 1007.93 1007.66 1007.42 1007.22 1007.04 1006.90 1006.78 1006.67 1006.58 1006.47 1006.36 1006.23 1006.07 1005.90 1005.70
1015.71 1015.47 1015.21 1014.94 1014.65 1014.35 1014.04 1013.73 1013.41 1013.09 1012.78 1012.48 1012.18 1011.90 1011.64 1011.37 1011.12 1010.86 1010.59 1010.32 1010.03 1009.72 1009.40 1009.07 1008.72 1008.38 1008.04 1007.71 1007.41 1007.15 1006.91 1006.71 1006.55 1006.41 1006.29 1006.19 1006.08 1005.96 1005.82 1005.66 1005.47 1005.25 1005.02
1015.54 1015.39 1015.21 1015.00 1014.76 1014.48 1014.18 1013.85 1013.51 1013.16 1012.81 1012.46 1012.13 1011.81 1011.51 1011.21 1010.91 1010.62 1010.32 1010.00 1009.67 1009.32 1008.96 1008.58 1008.20 1007.83 1007.47 1007.13 1006.83 1006.56 1006.33 1006.15 1005.99 1005.85 1005.73 1005.62 1005.49 1005.34 1005.17 1004.97 1004.74 1004.48 1004.21
1015.35 1015.28 1015.19 1015.04 1014.85 1014.60 1014.30 1013.96 1013.60 1013.21 1012.81 1012.42 1012.03 1011.66 1011.30 1010.96 1010.62 1010.28 1009.94 1009.58 1009.21 1008.83 1008.43 1008.03 1007.63 1007.24 1006.87 1006.54 1006.24 1005.98 1005.76 1005.58 1005.43 1005.29 1005.16 1005.02 1004.86 1004.68 1004.47 1004.23 1003.95 1003.65 1003.34
1015.05 1015.08 1015.06 1014.98 1014.82 1014.60 1014.31 1013.96 1013.56 1013.13 1012.69 1012.24 1011.80 1011.38 1010.97 1010.58 1010.21 1009.83 1009.46 1009.08 1008.69 1008.29 1007.89 1007.48 1007.08 1006.70 1006.35 1006.03 1005.74 1005.50 1005.29 1005.11 1004.96 1004.81 1004.66 1004.49 1004.30 1004.08 1003.82 1003.53 1003.21 1002.87 1002.52
1014.60 1014.70 1014.74 1014.70 1014.58 1014.38 1014.09 1013.72 1013.30 1012.84 1012.36 1011.87 1011.39 1010.93 1010.50 1010.08 1009.68 1009.30 1008.92 1008.55 1008.17 1007.79 1007.41 1007.03 1006.66 1006.31 1005.99 1005.70 1005.44 1005.22 1005.02 1004.85 1004.68 1004.52 1004.34 1004.14 1003.90 1003.63 1003.33 1002.99 1002.62 1002.24 1001.85
Thickness
5667 5668 5667 5667 5666 5666 5665 5665 5664 5662 5660 5658 5657 5655 5653 5652 5650 5648 5646 5643 5641 5638 5636 5634 5632 5629 5626 5623 5621 5617 5614 5610 5608 5612 5613 5614 5613 5613 5614 5613 5613 5613 5614
5664 5664 5664 5663 5661 5660 5659 5659 5659 5657 5656 5655 5653 5651 5650 5648 5646 5644 5641 5639 5636 5634 5632 5630 5627 5625 5622 5619 5616 5612 5610 5607 5603 5604 5607 5607 5607 5607 5607 5606 5607 5607 5607
5662 5661 5660 5658 5657 5656 5655 5655 5655 5654 5652 5651 5649 5648 5646 5645 5642 5640 5638 5635 5633 5630 5628 5625 5623 5620 5617 5614 5611 5608 5606 5604 5600 5597 5599 5600 5600 5601 5600 5600 5600 5600 5601
5660 5658 5656 5655 5655 5654 5652 5652 5651 5650 5648 5646 5645 5644 5643 5641 5639 5636 5634 5631 5629 5627 5625 5622 5620 5617 5613 5610 5607 5604 5601 5598 5596 5593 5593 5593 5593 5594 5592 5591 5592 5593 5593
5658 5656 5654 5654 5653 5651 5650 5649 5648 5646 5645 5644 5642 5641 5639 5637 5635 5632 5629 5627 5624 5622 5621 5619 5616 5614 5611 5607 5604 5601 5598 5594 5591 5589 5588 5587 5587 5586 5585 5584 5583 5584 5586
5655 5653 5653 5652 5650 5649 5647 5646 5644 5643 5642 5640 5638 5636 5634 5633 5631 5628 5626 5623 5621 5618 5616 5614 5612 5610 5607 5604 5602 5599 5595 5591 5587 5584 5583 5581 5582 5581 5580 5578 5576 5574 5576
5652 5652 5651 5649 5648 5646 5646 5643 5641 5639 5638 5636 5634 5632 5629 5628 5627 5625 5623 5619 5617 5614 5612 5609 5608 5607 5603 5600 5597 5595 5592 5590 5587 5582 5579 5578 5577 5576 5573 5572 5570 5569 5570
5650 5650 5649 5647 5646 5644 5642 5640 5638 5637 5635 5633 5631 5629 5626 5625 5624 5622 5620 5616 5614 5611 5609 5607 5603 5601 5599 5595 5592 5589 5587 5586 5584 5581 5578 5576 5574 5572 5568 5566 5565 5565 5566
5649 5648 5647 5646 5643 5641 5640 5638 5636 5634 5632 5630 5628 5626 5624 5622 5622 5620 5617 5614 5611 5608 5607 5604 5600 5597 5595 5592 5587 5584 5582 5581 5580 5577 5574 5572 5569 5567 5564 5561 5559 5557 5557
5648 5647 5647 5645 5643 5640 5638 5636 5635 5633 5630 5628 5627 5624 5622 5620 5619 5617 5614 5610 5607 5605 5603 5600 5598 5594 5590 5587 5582 5578 5575 5574 5573 5571 5569 5566 5564 5562 5559 5555 5553 5550 5549
5648 5648 5646 5644 5643 5641 5638 5636 5634 5631 5628 5626 5624 5622 5620 5618 5616 5614 5611 5606 5603 5600 5598 5595 5593 5590 5586 5582 5578 5574 5571 5568 5565 5562 5559 5557 5556 5554 5552 5550 5548 5545 5543
5648 5646 5645 5644 5643 5641 5638 5635 5633 5630 5627 5624 5621 5620 5619 5617 5614 5611 5608 5604 5601 5596 5593 5591 5588 5585 5582 5578 5575 5571 5568 5563 5558 5554 5550 5548 5546 5545 5544 5543 5542 5541 5540
5647 5645 5644 5643 5641 5639 5637 5634 5631 5629 5626 5623 5620 5617 5615 5613 5611 5608 5605 5602 5599 5594 5590 5587 5584 5581 5578 5574 5570 5566 5562 5556 5551 5546 5542 5539 5538 5537 5536 5536 5536 5535 5534
5645 5644 5643 5641 5639 5638 5636 5633 5630 5627 5625 5623 5620 5616 5613 5610 5608 5605 5602 5598 5595 5591 5587 5584 5581 5578 5574 5569 5564 5559 5554 5549 5543 5538 5535 5533 5531 5530 5528 5527 5526 5526 5526
5644 5643 5642 5640 5638 5636 5634 5632 5630 5629 5627 5624 5621 5617 5612 5609 5608 5604 5598 5594 5590 5586 5582 5579 5575 5571 5566 5562 5557 5552 5547 5542 5537 5532 5528 5526 5523 5522 5520 5519 5518 5517 5515
5643 5642 5641 5639 5637 5635 5633 5631 5631 5630 5629 5627 5623 5618 5614 5610 5606 5601 5597 5592 5588 5584 5579 5573 5568 5564 5559 5554 5550 5545 5541 5536 5531 5527 5523 5520 5517 5515 5513 5511 5510 5508 5507
5643 5642 5641 5639 5638 5636 5633 5631 5629 5628 5627 5625 5622 5618 5613 5608 5604 5599 5595 5590 5586 5581 5574 5569 5564 5559 5554 5549 5544 5539 5534 5530 5525 5521 5517 5514 5511 5508 5506 5503 5502 5501 5501
5643 5643 5642 5640 5639 5637 5634 5632 5629 5625 5622 5620 5619 5616 5611 5607 5602 5597 5592 5587 5582 5577 5570 5565 5560 5555 5550 5544 5539 5534 5529 5525 5520 5515 5511 5508 5504 5502 5499 5497 5495 5493 5493
5643 5642 5642 5640 5639 5637 5635 5632 5629 5625 5621 5617 5614 5612 5610 5605 5600 5595 5590 5583 5577 5572 5567 5561 5556 5550 5545 5540 5534 5529 5524 5520 5515 5510 5506 5502 5499 5496 5493 5491 5489 5488 5487
5643 5643 5642 5640 5638 5637 5634 5631 5627 5624 5620 5616 5613 5609 5606 5601 5595 5591 5586 5581 5575 5569 5564 5558 5553 5547 5541 5536 5531 5526 5521 5516 5511 5506 5502 5498 5494 5491 5488 5486 5484 5482 5481
5643 5642 5642 5639 5637 5636 5633 5630 5627 5623 5619 5615 5612 5610 5606 5599 5594 5589 5583 5578 5572 5567 5561 5555 5549 5543 5538 5533 5528 5522 5517 5512 5507 5502 5498 5494 5491 5487 5485 5482 5480 5478 5477
5642 5641 5640 5638 5637 5635 5633 5630 5626 5623 5619 5615 5611 5608 5604 5598 5592 5586 5581 5576 5570 5564 5558 5552 5546 5540 5534 5529 5523 5518 5513 5508 5503 5499 5495 5491 5487 5484 5481 5479 5477 5475 5474
5641 5640 5639 5638 5636 5635 5632 5629 5625 5622 5618 5614 5611 5606 5600 5595 5590 5584 5579 5573 5567 5561 5555 5549 5543 5537 5531 5526 5520 5515 5509 5505 5500 5495 5491 5488 5484 5481 5478 5476 5475 5473 5472
5639 5639 5637 5636 5634 5632 5629 5626 5623 5620 5617 5612 5608 5603 5598 5593 5587 5582 5576 5570 5564 5558 5552 5546 5540 5534 5528 5523 5517 5512 5507 5503 5499 5494 5490 5486 5482 5479 5477 5474 5472 5471 5469
5638 5637 5636 5634 5632 5630 5627 5624 5621 5618 5614 5610 5606 5601 5596 5590 5585 5579 5573 5567 5562 5555 5549 5543 5537 5531 5525 5520 5515 5510 5506 5502 5498 5494 5490 5486 5482 5479 5476 5473 5471 5469 5467
5636 5636 5634 5633 5631 5628 5625 5622 5619 5615 5612 5608 5603 5599 5593 5588 5582 5576 5570 5565 5558 5552 5546 5540 5534 5529 5523 5518 5513 5509 5505 5502 5498 5494 5489 5485 5482 5478 5475 5472 5470 5467 5465